QPF
0.00 0.01 0.01 0.03 0.07 0.08 0.08 0.05 0.04 0.03 0.01 0.00 0.01 0.01 0.02 0.03 0.05 0.06 0.03 0.01 0.01 0.01 0.02 0.01 0.01 0.01 0.02 0.03 0.04 0.03 0.03 0.04 0.04 0.04 0.05 0.06 0.07 0.10 0.12 0.12 0.15 0.18 0.16 0.09 0.08 0.06 0.06 0.06 0.06
0.01 0.01 0.01 0.04 0.08 0.08 0.09 0.06 0.04 0.02 0.01 0.00 0.01 0.01 0.00 0.01 0.01 0.03 0.02 0.01 0.01 0.01 0.01 0.00 0.01 0.01 0.01 0.02 0.03 0.03 0.03 0.04 0.04 0.03 0.04 0.07 0.08 0.11 0.11 0.11 0.14 0.15 0.10 0.07 0.07 0.07 0.07 0.08 0.07
0.00 0.00 0.02 0.05 0.07 0.08 0.08 0.05 0.03 0.01 0.01 0.01 0.01 0.01 0.00 0.01 0.01 0.02 0.02 0.01 0.00 0.01 0.01 0.00 0.00 0.01 0.01 0.01 0.03 0.04 0.03 0.03 0.03 0.03 0.04 0.06 0.08 0.08 0.08 0.09 0.09 0.08 0.08 0.08 0.09 0.08 0.07 0.07 0.06
0.00 0.01 0.02 0.04 0.06 0.06 0.03 0.02 0.02 0.01 0.01 0.01 0.01 0.01 0.01 0.01 0.01 0.01 0.01 0.00 0.00 0.01 0.00 0.00 0.00 0.01 0.01 0.02 0.03 0.03 0.03 0.02 0.02 0.02 0.03 0.07 0.09 0.09 0.10 0.11 0.08 0.07 0.08 0.09 0.08 0.08 0.07 0.08 0.08
0.01 0.02 0.03 0.04 0.04 0.03 0.01 0.01 0.01 0.02 0.01 0.00 0.00 0.01 0.02 0.01 0.00 0.00 0.00 0.00 0.00 0.00 0.00 0.00 0.01 0.01 0.01 0.03 0.02 0.02 0.02 0.02 0.01 0.02 0.03 0.06 0.09 0.12 0.12 0.12 0.10 0.09 0.09 0.10 0.12 0.12 0.09 0.08 0.08
0.01 0.02 0.03 0.05 0.04 0.03 0.01 0.00 0.00 0.01 0.02 0.01 0.01 0.01 0.03 0.01 0.00 0.00 0.00 0.00 0.00 0.00 0.00 0.00 0.01 0.01 0.01 0.01 0.02 0.02 0.01 0.02 0.03 0.03 0.02 0.03 0.06 0.11 0.13 0.12 0.12 0.11 0.10 0.15 0.21 0.24 0.17 0.10 0.09
0.02 0.02 0.03 0.03 0.03 0.04 0.02 0.00 0.01 0.02 0.02 0.01 0.01 0.02 0.03 0.02 0.01 0.00 0.00 0.00 0.00 0.00 0.00 0.00 0.00 0.00 0.01 0.01 0.01 0.01 0.01 0.02 0.02 0.02 0.02 0.02 0.03 0.06 0.09 0.11 0.13 0.11 0.09 0.12 0.26 0.23 0.16 0.12 0.11
0.00 0.01 0.02 0.02 0.03 0.06 0.02 0.00 0.01 0.02 0.03 0.02 0.01 0.02 0.02 0.01 0.00 0.00 0.00 0.00 0.00 0.00 0.00 0.00 0.00 0.00 0.01 0.01 0.01 0.02 0.02 0.02 0.01 0.02 0.02 0.02 0.03 0.06 0.09 0.10 0.13 0.12 0.10 0.15 0.38 0.34 0.20 0.13 0.10
0.00 0.02 0.03 0.02 0.02 0.04 0.01 0.00 0.01 0.01 0.01 0.01 0.01 0.01 0.01 0.00 0.00 0.00 0.00 0.01 0.00 0.00 0.00 0.00 0.00 0.00 0.01 0.01 0.01 0.02 0.02 0.01 0.02 0.02 0.02 0.03 0.05 0.07 0.12 0.14 0.14 0.11 0.10 0.16 0.37 0.42 0.24 0.13 0.09
0.01 0.05 0.04 0.01 0.01 0.02 0.01 0.00 0.00 0.01 0.01 0.01 0.02 0.01 0.01 0.01 0.01 0.01 0.01 0.00 0.00 0.00 0.00 0.00 0.00 0.00 0.00 0.01 0.01 0.03 0.03 0.02 0.03 0.03 0.03 0.04 0.05 0.06 0.07 0.12 0.13 0.10 0.09 0.11 0.22 0.33 0.25 0.15 0.09
0.01 0.03 0.01 0.00 0.00 0.01 0.00 0.00 0.00 0.01 0.01 0.01 0.02 0.01 0.01 0.01 0.01 0.01 0.01 0.01 0.00 0.00 0.00 0.00 0.00 0.00 0.00 0.01 0.02 0.02 0.03 0.03 0.03 0.04 0.04 0.05 0.04 0.03 0.03 0.03 0.03 0.03 0.04 0.05 0.08 0.16 0.19 0.13 0.09
0.00 0.00 0.00 0.00 0.00 0.00 0.00 0.00 0.00 0.01 0.02 0.02 0.01 0.00 0.00 0.01 0.01 0.00 0.00 0.00 0.00 0.00 0.00 0.00 0.00 0.00 0.00 0.01 0.02 0.01 0.02 0.03 0.04 0.04 0.03 0.04 0.04 0.03 0.02 0.03 0.02 0.02 0.02 0.03 0.03 0.05 0.06 0.06 0.06
0.00 0.00 0.00 0.00 0.00 0.00 0.00 0.00 0.00 0.01 0.02 0.01 0.00 0.00 0.01 0.01 0.01 0.00 0.00 0.00 0.00 0.00 0.00 0.00 0.00 0.00 0.01 0.01 0.01 0.01 0.02 0.02 0.02 0.04 0.04 0.02 0.03 0.04 0.03 0.02 0.02 0.03 0.03 0.03 0.02 0.03 0.02 0.02 0.02
0.00 0.00 0.00 0.00 0.00 0.00 0.00 0.00 0.00 0.01 0.02 0.01 0.01 0.01 0.01 0.01 0.00 0.00 0.00 0.01 0.01 0.01 0.01 0.00 0.00 0.01 0.01 0.00 0.00 0.01 0.01 0.01 0.02 0.03 0.03 0.01 0.02 0.02 0.03 0.04 0.05 0.02 0.02 0.01 0.02 0.03 0.02 0.02 0.02
0.00 0.00 0.00 0.01 0.01 0.00 0.00 0.01 0.01 0.02 0.02 0.02 0.01 0.01 0.01 0.00 0.00 0.00 0.01 0.04 0.02 0.01 0.00 0.00 0.00 0.00 0.01 0.01 0.01 0.01 0.01 0.01 0.01 0.03 0.02 0.02 0.01 0.01 0.03 0.04 0.04 0.02 0.02 0.02 0.02 0.02 0.02 0.02 0.02
0.00 0.01 0.03 0.02 0.01 0.01 0.01 0.03 0.02 0.03 0.03 0.02 0.02 0.03 0.02 0.01 0.01 0.00 0.01 0.02 0.01 0.01 0.01 0.01 0.02 0.01 0.00 0.00 0.01 0.01 0.01 0.02 0.02 0.02 0.03 0.02 0.02 0.01 0.02 0.04 0.03 0.01 0.01 0.02 0.02 0.02 0.03 0.03 0.02
0.02 0.03 0.03 0.02 0.01 0.01 0.01 0.03 0.02 0.03 0.03 0.02 0.03 0.03 0.02 0.01 0.01 0.01 0.00 0.00 0.00 0.01 0.01 0.01 0.01 0.01 0.00 0.00 0.01 0.01 0.02 0.02 0.03 0.03 0.03 0.03 0.03 0.02 0.02 0.03 0.03 0.02 0.02 0.01 0.01 0.03 0.03 0.03 0.04
0.02 0.01 0.01 0.02 0.01 0.01 0.02 0.02 0.01 0.02 0.02 0.03 0.04 0.02 0.01 0.01 0.01 0.01 0.00 0.00 0.00 0.00 0.00 0.01 0.01 0.01 0.01 0.01 0.01 0.02 0.02 0.02 0.02 0.03 0.03 0.04 0.02 0.01 0.01 0.01 0.02 0.02 0.02 0.02 0.02 0.03 0.03 0.03 0.04
0.00 0.01 0.01 0.01 0.00 0.01 0.01 0.01 0.01 0.01 0.01 0.02 0.02 0.01 0.01 0.01 0.00 0.00 0.00 0.00 0.01 0.01 0.00 0.00 0.00 0.01 0.01 0.02 0.02 0.02 0.02 0.02 0.01 0.01 0.01 0.01 0.01 0.01 0.02 0.02 0.02 0.02 0.02 0.02 0.02 0.02 0.02 0.02 0.02
0.00 0.00 0.00 0.00 0.00 0.01 0.02 0.01 0.00 0.00 0.00 0.01 0.01 0.01 0.01 0.01 0.00 0.00 0.00 0.00 0.00 0.00 0.00 0.00 0.00 0.01 0.01 0.01 0.01 0.01 0.01 0.01 0.02 0.02 0.02 0.01 0.01 0.01 0.02 0.03 0.04 0.04 0.04 0.03 0.03 0.02 0.03 0.02 0.02
0.00 0.00 0.00 0.00 0.00 0.00 0.01 0.02 0.01 0.00 0.00 0.00 0.01 0.01 0.01 0.01 0.01 0.00 0.00 0.01 0.00 0.01 0.00 0.00 0.00 0.00 0.01 0.00 0.00 0.01 0.02 0.02 0.01 0.01 0.01 0.01 0.01 0.01 0.02 0.02 0.02 0.03 0.04 0.04 0.04 0.03 0.04 0.03 0.02
0.01 0.00 0.00 0.00 0.00 0.01 0.01 0.02 0.02 0.01 0.01 0.00 0.00 0.00 0.00 0.01 0.01 0.00 0.00 0.00 0.00 0.00 0.00 0.00 0.00 0.00 0.00 0.01 0.01 0.01 0.01 0.01 0.01 0.00 0.00 0.01 0.01 0.02 0.02 0.02 0.02 0.02 0.03 0.03 0.02 0.02 0.03 0.04 0.04
0.00 0.00 0.00 0.00 0.00 0.01 0.00 0.01 0.01 0.00 0.00 0.01 0.01 0.00 0.00 0.00 0.00 0.00 0.00 0.00 0.00 0.00 0.00 0.00 0.00 0.00 0.00 0.01 0.02 0.02 0.01 0.01 0.01 0.01 0.01 0.01 0.01 0.01 0.02 0.03 0.02 0.01 0.02 0.02 0.03 0.02 0.03 0.03 0.03
0.00 0.00 0.00 0.00 0.01 0.01 0.00 0.01 0.01 0.01 0.00 0.00 0.00 0.00 0.00 0.00 0.00 0.00 0.00 0.00 0.00 0.01 0.01 0.00 0.00 0.00 0.01 0.01 0.01 0.01 0.01 0.01 0.02 0.02 0.01 0.01 0.01 0.01 0.02 0.02 0.02 0.01 0.01 0.01 0.02 0.03 0.03 0.03 0.03
0.00 0.02 0.03 0.03 0.03 0.02 0.00 0.00 0.01 0.00 0.00 0.00 0.00 0.00 0.00 0.00 0.00 0.00 0.00 0.00 0.00 0.00 0.01 0.00 0.00 0.01 0.01 0.01 0.01 0.01 0.01 0.01 0.03 0.03 0.03 0.02 0.01 0.01 0.01 0.02 0.02 0.01 0.01 0.01 0.01 0.02 0.02 0.03 0.03
0.01 0.02 0.03 0.03 0.03 0.01 0.00 0.00 0.00 0.00 0.00 0.00 0.00 0.00 0.00 0.00 0.00 0.00 0.00 0.00 0.00 0.00 0.00 0.01 0.00 0.01 0.02 0.01 0.01 0.01 0.01 0.01 0.02 0.03 0.03 0.03 0.02 0.01 0.01 0.01 0.01 0.01 0.01 0.00 0.01 0.01 0.02 0.02 0.02
0.01 0.02 0.01 0.02 0.02 0.02 0.01 0.00 0.00 0.00 0.00 0.00 0.00 0.00 0.00 0.00 0.00 0.00 0.00 0.00 0.00 0.00 0.00 0.00 0.00 0.01 0.01 0.01 0.02 0.01 0.01 0.01 0.02 0.03 0.03 0.04 0.03 0.03 0.02 0.02 0.02 0.01 0.01 0.01 0.01 0.01 0.01 0.01 0.02
0.00 0.01 0.02 0.03 0.03 0.03 0.02 0.01 0.01 0.00 0.00 0.00 0.00 0.00 0.00 0.00 0.00 0.00 0.00 0.00 0.00 0.00 0.00 0.00 0.00 0.01 0.01 0.01 0.01 0.01 0.01 0.02 0.02 0.03 0.04 0.03 0.04 0.04 0.04 0.04 0.03 0.02 0.01 0.02 0.02 0.01 0.01 0.01 0.02
0.00 0.01 0.01 0.02 0.02 0.03 0.03 0.02 0.01 0.00 0.00 0.00 0.00 0.00 0.00 0.00 0.00 0.00 0.00 0.00 0.00 0.00 0.00 0.00 0.01 0.02 0.02 0.02 0.02 0.02 0.03 0.03 0.03 0.03 0.04 0.04 0.03 0.03 0.04 0.06 0.05 0.03 0.02 0.02 0.02 0.01 0.01 0.01 0.01
0.00 0.00 0.01 0.02 0.02 0.01 0.02 0.02 0.00 0.00 0.00 0.00 0.00 0.00 0.00 0.00 0.00 0.00 0.00 0.00 0.00 0.00 0.00 0.01 0.01 0.01 0.02 0.03 0.02 0.02 0.02 0.02 0.03 0.04 0.03 0.03 0.02 0.02 0.02 0.04 0.05 0.05 0.04 0.03 0.03 0.02 0.02 0.03 0.03
MSLP
1004.83 1005.47 1006.36 1007.41 1008.48 1009.46 1010.24 1010.79 1011.09 1011.21 1011.23 1011.25 1011.34 1011.54 1011.81 1012.10 1012.34 1012.43 1012.34 1012.07 1011.66 1011.20 1010.78 1010.46 1010.30 1010.27 1010.32 1010.40 1010.41 1010.33 1010.14 1009.87 1009.57 1009.31 1009.13 1009.06 1009.08 1009.16 1009.26 1009.32 1009.32 1009.28 1009.20 1009.13 1009.11 1009.15 1009.26 1009.45 1009.68
1005.12 1005.92 1006.91 1007.98 1009.01 1009.87 1010.50 1010.87 1011.00 1010.98 1010.92 1010.91 1011.01 1011.24 1011.57 1011.93 1012.21 1012.35 1012.29 1012.04 1011.67 1011.24 1010.86 1010.59 1010.46 1010.46 1010.52 1010.59 1010.59 1010.49 1010.28 1010.00 1009.71 1009.46 1009.31 1009.26 1009.31 1009.40 1009.49 1009.55 1009.55 1009.49 1009.41 1009.34 1009.33 1009.40 1009.55 1009.78 1010.06
1005.57 1006.48 1007.51 1008.54 1009.46 1010.17 1010.62 1010.81 1010.80 1010.67 1010.55 1010.53 1010.65 1010.93 1011.31 1011.71 1012.03 1012.19 1012.15 1011.93 1011.58 1011.21 1010.88 1010.67 1010.59 1010.64 1010.73 1010.81 1010.82 1010.71 1010.49 1010.21 1009.92 1009.69 1009.55 1009.51 1009.57 1009.66 1009.75 1009.80 1009.79 1009.74 1009.67 1009.63 1009.65 1009.76 1009.97 1010.25 1010.59
1006.14 1007.10 1008.11 1009.06 1009.84 1010.38 1010.66 1010.69 1010.56 1010.37 1010.23 1010.22 1010.38 1010.70 1011.11 1011.52 1011.84 1011.99 1011.95 1011.75 1011.44 1011.12 1010.86 1010.73 1010.73 1010.84 1010.98 1011.09 1011.11 1011.01 1010.80 1010.53 1010.25 1010.02 1009.89 1009.87 1009.92 1010.01 1010.10 1010.14 1010.13 1010.09 1010.05 1010.05 1010.13 1010.30 1010.57 1010.91 1011.28
1006.79 1007.74 1008.68 1009.50 1010.12 1010.49 1010.62 1010.54 1010.35 1010.15 1010.03 1010.06 1010.27 1010.61 1011.03 1011.43 1011.72 1011.84 1011.77 1011.57 1011.29 1011.03 1010.85 1010.81 1010.90 1011.08 1011.29 1011.45 1011.50 1011.42 1011.23 1010.97 1010.71 1010.50 1010.39 1010.37 1010.42 1010.51 1010.58 1010.63 1010.63 1010.61 1010.61 1010.66 1010.80 1011.03 1011.35 1011.73 1012.14
1007.42 1008.30 1009.12 1009.79 1010.25 1010.48 1010.50 1010.37 1010.17 1010.01 1009.96 1010.06 1010.32 1010.69 1011.10 1011.47 1011.70 1011.76 1011.67 1011.45 1011.20 1010.99 1010.89 1010.94 1011.12 1011.39 1011.66 1011.87 1011.96 1011.92 1011.76 1011.53 1011.30 1011.13 1011.03 1011.03 1011.09 1011.17 1011.25 1011.29 1011.30 1011.31 1011.34 1011.44 1011.64 1011.92 1012.28 1012.69 1013.10
1007.92 1008.70 1009.37 1009.87 1010.18 1010.30 1010.27 1010.14 1010.00 1009.93 1009.98 1010.18 1010.51 1010.91 1011.30 1011.62 1011.79 1011.80 1011.65 1011.43 1011.20 1011.04 1011.01 1011.14 1011.40 1011.73 1012.07 1012.32 1012.45 1012.45 1012.34 1012.16 1011.99 1011.86 1011.81 1011.83 1011.91 1012.00 1012.08 1012.12 1012.14 1012.16 1012.22 1012.36 1012.58 1012.90 1013.28 1013.69 1014.09
1008.24 1008.87 1009.38 1009.72 1009.91 1009.96 1009.91 1009.83 1009.79 1009.84 1010.02 1010.33 1010.74 1011.17 1011.56 1011.84 1011.96 1011.91 1011.74 1011.51 1011.30 1011.19 1011.22 1011.40 1011.72 1012.10 1012.48 1012.77 1012.94 1012.98 1012.92 1012.81 1012.71 1012.65 1012.65 1012.72 1012.83 1012.93 1013.01 1013.06 1013.07 1013.09 1013.16 1013.30 1013.54 1013.86 1014.24 1014.64 1015.01
1008.32 1008.80 1009.15 1009.36 1009.45 1009.45 1009.43 1009.43 1009.51 1009.70 1010.02 1010.44 1010.92 1011.39 1011.79 1012.05 1012.14 1012.07 1011.89 1011.68 1011.50 1011.42 1011.50 1011.72 1012.07 1012.47 1012.85 1013.16 1013.36 1013.45 1013.45 1013.41 1013.38 1013.40 1013.49 1013.61 1013.76 1013.89 1013.98 1014.02 1014.02 1014.03 1014.08 1014.21 1014.43 1014.74 1015.10 1015.47 1015.81
1008.19 1008.54 1008.75 1008.85 1008.88 1008.87 1008.89 1008.98 1009.17 1009.49 1009.92 1010.44 1010.99 1011.51 1011.92 1012.18 1012.28 1012.22 1012.07 1011.89 1011.75 1011.72 1011.83 1012.07 1012.42 1012.81 1013.19 1013.49 1013.70 1013.81 1013.87 1013.90 1013.96 1014.07 1014.23 1014.43 1014.62 1014.78 1014.88 1014.92 1014.91 1014.89 1014.92 1015.01 1015.20 1015.48 1015.81 1016.16 1016.48
1007.93 1008.17 1008.29 1008.32 1008.32 1008.32 1008.39 1008.55 1008.83 1009.24 1009.76 1010.34 1010.94 1011.48 1011.92 1012.20 1012.33 1012.32 1012.23 1012.11 1012.02 1012.04 1012.17 1012.42 1012.76 1013.12 1013.47 1013.75 1013.95 1014.08 1014.18 1014.27 1014.40 1014.59 1014.83 1015.09 1015.34 1015.54 1015.66 1015.70 1015.68 1015.64 1015.63 1015.70 1015.85 1016.09 1016.39 1016.71 1017.02
1007.64 1007.82 1007.89 1007.89 1007.89 1007.92 1008.03 1008.24 1008.57 1009.03 1009.57 1010.17 1010.78 1011.33 1011.79 1012.11 1012.29 1012.36 1012.34 1012.29 1012.28 1012.35 1012.51 1012.76 1013.07 1013.40 1013.70 1013.95 1014.14 1014.28 1014.39 1014.53 1014.71 1014.96 1015.26 1015.58 1015.88 1016.11 1016.26 1016.32 1016.30 1016.26 1016.24 1016.27 1016.40 1016.60 1016.88 1017.19 1017.50
1007.40 1007.57 1007.64 1007.67 1007.69 1007.76 1007.90 1008.13 1008.47 1008.91 1009.43 1009.99 1010.57 1011.11 1011.57 1011.93 1012.17 1012.31 1012.38 1012.43 1012.49 1012.61 1012.80 1013.06 1013.35 1013.65 1013.93 1014.15 1014.31 1014.44 1014.56 1014.72 1014.92 1015.20 1015.53 1015.89 1016.23 1016.51 1016.69 1016.78 1016.80 1016.77 1016.75 1016.79 1016.90 1017.09 1017.36 1017.67 1017.98
1007.28 1007.48 1007.60 1007.69 1007.77 1007.88 1008.04 1008.26 1008.56 1008.93 1009.37 1009.86 1010.37 1010.86 1011.32 1011.70 1012.00 1012.21 1012.37 1012.51 1012.65 1012.82 1013.04 1013.31 1013.61 1013.90 1014.16 1014.36 1014.52 1014.64 1014.75 1014.89 1015.09 1015.37 1015.70 1016.07 1016.43 1016.74 1016.98 1017.12 1017.19 1017.22 1017.24 1017.29 1017.41 1017.61 1017.88 1018.19 1018.51
1007.24 1007.52 1007.74 1007.91 1008.07 1008.23 1008.39 1008.59 1008.81 1009.08 1009.41 1009.79 1010.20 1010.64 1011.06 1011.46 1011.80 1012.08 1012.32 1012.52 1012.73 1012.96 1013.22 1013.51 1013.83 1014.13 1014.40 1014.62 1014.78 1014.90 1015.00 1015.12 1015.29 1015.53 1015.83 1016.18 1016.55 1016.89 1017.18 1017.39 1017.54 1017.64 1017.72 1017.83 1017.98 1018.19 1018.46 1018.77 1019.10
1007.24 1007.61 1007.93 1008.22 1008.46 1008.67 1008.84 1008.99 1009.13 1009.29 1009.49 1009.75 1010.07 1010.43 1010.83 1011.23 1011.60 1011.93 1012.22 1012.49 1012.75 1013.02 1013.32 1013.65 1014.00 1014.35 1014.67 1014.93 1015.12 1015.25 1015.34 1015.43 1015.56 1015.74 1015.99 1016.30 1016.65 1017.01 1017.35 1017.64 1017.87 1018.06 1018.22 1018.39 1018.58 1018.82 1019.10 1019.41 1019.73
1007.16 1007.64 1008.08 1008.47 1008.81 1009.06 1009.24 1009.34 1009.40 1009.45 1009.53 1009.68 1009.91 1010.22 1010.59 1011.00 1011.40 1011.77 1012.11 1012.41 1012.70 1013.01 1013.34 1013.72 1014.12 1014.53 1014.92 1015.25 1015.50 1015.67 1015.78 1015.84 1015.92 1016.03 1016.21 1016.47 1016.79 1017.16 1017.53 1017.88 1018.20 1018.48 1018.72 1018.95 1019.19 1019.44 1019.73 1020.03 1020.34
1006.92 1007.50 1008.05 1008.56 1008.97 1009.28 1009.45 1009.52 1009.49 1009.44 1009.42 1009.48 1009.65 1009.93 1010.31 1010.74 1011.18 1011.60 1011.97 1012.30 1012.62 1012.94 1013.30 1013.71 1014.17 1014.66 1015.13 1015.55 1015.89 1016.12 1016.26 1016.32 1016.36 1016.42 1016.53 1016.73 1017.01 1017.36 1017.75 1018.15 1018.53 1018.88 1019.19 1019.48 1019.74 1020.01 1020.29 1020.57 1020.86
1006.49 1007.16 1007.81 1008.41 1008.90 1009.24 1009.41 1009.43 1009.34 1009.20 1009.10 1009.10 1009.24 1009.52 1009.93 1010.41 1010.91 1011.39 1011.80 1012.17 1012.50 1012.83 1013.20 1013.63 1014.14 1014.70 1015.26 1015.79 1016.22 1016.54 1016.74 1016.82 1016.85 1016.87 1016.93 1017.07 1017.30 1017.63 1018.01 1018.44 1018.86 1019.25 1019.60 1019.91 1020.19 1020.45 1020.71 1020.97 1021.24
1005.90 1006.64 1007.39 1008.08 1008.62 1008.98 1009.13 1009.10 1008.93 1008.72 1008.55 1008.51 1008.64 1008.95 1009.42 1009.98 1010.57 1011.12 1011.60 1012.01 1012.36 1012.69 1013.06 1013.51 1014.04 1014.66 1015.30 1015.92 1016.45 1016.87 1017.14 1017.28 1017.33 1017.34 1017.37 1017.46 1017.66 1017.94 1018.31 1018.73 1019.15 1019.56 1019.91 1020.22 1020.49 1020.73 1020.97 1021.21 1021.45
1005.25 1006.07 1006.90 1007.65 1008.23 1008.59 1008.70 1008.60 1008.34 1008.04 1007.80 1007.72 1007.86 1008.21 1008.76 1009.43 1010.13 1010.79 1011.36 1011.82 1012.20 1012.55 1012.91 1013.35 1013.89 1014.53 1015.22 1015.92 1016.54 1017.06 1017.42 1017.63 1017.73 1017.76 1017.79 1017.87 1018.03 1018.28 1018.62 1019.01 1019.41 1019.78 1020.12 1020.40 1020.64 1020.85 1021.06 1021.28 1021.51
1004.70 1005.59 1006.49 1007.29 1007.89 1008.23 1008.28 1008.08 1007.72 1007.30 1006.97 1006.83 1006.95 1007.34 1007.96 1008.74 1009.58 1010.37 1011.06 1011.61 1012.04 1012.40 1012.77 1013.19 1013.71 1014.34 1015.05 1015.79 1016.48 1017.08 1017.53 1017.83 1018.00 1018.08 1018.14 1018.23 1018.38 1018.61 1018.91 1019.25 1019.61 1019.94 1020.23 1020.47 1020.67 1020.84 1021.02 1021.23 1021.46
1004.37 1005.33 1006.30 1007.14 1007.75 1008.05 1008.02 1007.70 1007.19 1006.63 1006.16 1005.92 1005.99 1006.39 1007.07 1007.96 1008.92 1009.86 1010.68 1011.34 1011.85 1012.26 1012.63 1013.03 1013.52 1014.12 1014.82 1015.56 1016.29 1016.94 1017.47 1017.86 1018.11 1018.27 1018.38 1018.50 1018.66 1018.88 1019.15 1019.45 1019.76 1020.04 1020.28 1020.47 1020.63 1020.77 1020.93 1021.13 1021.37
1004.33 1005.36 1006.39 1007.28 1007.89 1008.15 1008.02 1007.56 1006.87 1006.13 1005.49 1005.11 1005.08 1005.44 1006.14 1007.09 1008.17 1009.25 1010.21 1011.00 1011.62 1012.09 1012.48 1012.88 1013.34 1013.89 1014.55 1015.27 1016.00 1016.68 1017.27 1017.73 1018.07 1018.31 1018.49 1018.65 1018.84 1019.06 1019.32 1019.60 1019.87 1020.11 1020.30 1020.46 1020.58 1020.71 1020.85 1021.05 1021.31
1004.59 1005.68 1006.77 1007.69 1008.30 1008.51 1008.28 1007.67 1006.81 1005.86 1005.02 1004.46 1004.29 1004.55 1005.22 1006.20 1007.36 1008.55 1009.64 1010.58 1011.31 1011.87 1012.31 1012.72 1013.16 1013.67 1014.28 1014.96 1015.67 1016.35 1016.97 1017.48 1017.89 1018.20 1018.45 1018.67 1018.90 1019.14 1019.40 1019.67 1019.92 1020.15 1020.32 1020.46 1020.57 1020.69 1020.84 1021.04 1021.31
1005.04 1006.18 1007.32 1008.27 1008.88 1009.04 1008.73 1008.00 1006.96 1005.82 1004.78 1004.02 1003.67 1003.79 1004.37 1005.32 1006.51 1007.78 1008.99 1010.05 1010.91 1011.57 1012.09 1012.53 1012.97 1013.46 1014.03 1014.66 1015.33 1016.00 1016.62 1017.16 1017.62 1017.98 1018.29 1018.57 1018.84 1019.11 1019.40 1019.68 1019.94 1020.16 1020.35 1020.50 1020.62 1020.75 1020.91 1021.13 1021.41
1005.56 1006.72 1007.88 1008.85 1009.46 1009.60 1009.23 1008.41 1007.25 1005.95 1004.73 1003.78 1003.24 1003.20 1003.66 1004.53 1005.69 1006.99 1008.27 1009.43 1010.40 1011.18 1011.79 1012.30 1012.77 1013.25 1013.79 1014.39 1015.03 1015.67 1016.27 1016.82 1017.30 1017.70 1018.05 1018.37 1018.68 1018.99 1019.30 1019.61 1019.90 1020.16 1020.38 1020.56 1020.73 1020.89 1021.07 1021.30 1021.59
1006.01 1007.15 1008.29 1009.26 1009.87 1010.00 1009.62 1008.76 1007.54 1006.15 1004.81 1003.71 1003.02 1002.82 1003.13 1003.88 1004.97 1006.24 1007.54 1008.76 1009.82 1010.69 1011.40 1011.99 1012.52 1013.04 1013.58 1014.16 1014.77 1015.38 1015.97 1016.50 1016.98 1017.39 1017.76 1018.10 1018.44 1018.78 1019.13 1019.48 1019.82 1020.13 1020.41 1020.65 1020.87 1021.08 1021.29 1021.54 1021.82
1006.28 1007.34 1008.43 1009.36 1009.96 1010.11 1009.75 1008.92 1007.73 1006.34 1004.96 1003.80 1003.00 1002.68 1002.84 1003.45 1004.42 1005.60 1006.86 1008.08 1009.19 1010.13 1010.93 1011.60 1012.20 1012.77 1013.35 1013.94 1014.55 1015.15 1015.72 1016.24 1016.70 1017.11 1017.47 1017.82 1018.17 1018.53 1018.91 1019.30 1019.69 1020.07 1020.42 1020.73 1021.01 1021.28 1021.53 1021.80 1022.08
1006.36 1007.29 1008.27 1009.12 1009.69 1009.85 1009.56 1008.82 1007.73 1006.43 1005.13 1003.99 1003.17 1002.77 1002.82 1003.29 1004.11 1005.16 1006.32 1007.49 1008.58 1009.55 1010.40 1011.14 1011.82 1012.46 1013.09 1013.72 1014.34 1014.95 1015.51 1016.02 1016.47 1016.86 1017.22 1017.56 1017.91 1018.28 1018.68 1019.11 1019.55 1019.99 1020.40 1020.79 1021.14 1021.46 1021.76 1022.04 1022.32
Thickness
5802 5806 5805 5792 5770 5756 5749 5758 5767 5768 5771 5779 5782 5778 5767 5759 5751 5740 5761 5774 5774 5772 5769 5766 5765 5765 5766 5766 5767 5767 5767 5768 5768 5768 5768 5769 5769 5769 5770 5771 5772 5771 5770 5771 5771 5771 5771 5772 5772
5805 5808 5797 5780 5757 5742 5743 5759 5762 5767 5775 5782 5781 5777 5768 5761 5765 5762 5765 5772 5774 5771 5767 5764 5763 5763 5763 5763 5764 5764 5764 5764 5765 5765 5765 5765 5765 5765 5766 5767 5767 5767 5766 5767 5767 5767 5767 5767 5768
5804 5805 5785 5771 5757 5745 5745 5761 5765 5773 5780 5780 5775 5774 5765 5759 5765 5764 5768 5773 5773 5769 5766 5762 5761 5761 5761 5761 5761 5761 5762 5762 5762 5762 5762 5761 5761 5762 5762 5763 5763 5763 5762 5763 5763 5763 5763 5763 5763
5802 5792 5782 5763 5750 5757 5762 5766 5772 5771 5774 5779 5775 5764 5763 5769 5768 5768 5772 5773 5770 5767 5764 5760 5759 5758 5758 5758 5758 5758 5758 5758 5758 5758 5758 5758 5758 5758 5758 5758 5758 5758 5758 5758 5758 5758 5758 5758 5759
5799 5780 5762 5751 5752 5762 5771 5776 5775 5768 5767 5772 5770 5755 5752 5766 5771 5771 5770 5770 5767 5765 5763 5759 5757 5756 5755 5755 5755 5755 5755 5755 5755 5755 5755 5754 5754 5754 5754 5754 5753 5753 5753 5753 5753 5753 5754 5754 5754
5782 5774 5750 5742 5749 5761 5770 5777 5774 5767 5766 5769 5765 5755 5751 5765 5766 5767 5769 5768 5767 5764 5762 5758 5755 5754 5753 5752 5752 5752 5751 5751 5751 5751 5751 5751 5750 5749 5749 5749 5749 5748 5748 5748 5748 5748 5748 5749 5749
5772 5762 5749 5747 5747 5753 5765 5776 5770 5764 5762 5765 5768 5753 5750 5759 5764 5767 5767 5766 5765 5763 5761 5758 5755 5752 5751 5750 5749 5749 5748 5748 5748 5748 5747 5747 5747 5746 5745 5745 5744 5744 5743 5743 5743 5743 5743 5743 5744
5782 5764 5751 5749 5746 5748 5765 5772 5772 5767 5762 5771 5771 5752 5746 5756 5764 5766 5764 5763 5762 5762 5760 5758 5756 5753 5751 5748 5747 5746 5746 5745 5745 5744 5744 5744 5743 5742 5741 5740 5740 5739 5739 5738 5738 5738 5739 5738 5739
5784 5755 5743 5748 5748 5751 5766 5766 5769 5775 5768 5767 5768 5763 5761 5764 5764 5760 5756 5755 5756 5758 5758 5757 5756 5753 5751 5748 5745 5744 5743 5743 5742 5741 5741 5740 5739 5738 5737 5736 5736 5735 5735 5735 5734 5737 5737 5735 5735
5772 5745 5748 5761 5764 5761 5765 5765 5766 5764 5758 5757 5758 5761 5763 5761 5758 5753 5750 5749 5749 5750 5753 5754 5754 5752 5750 5748 5744 5743 5742 5740 5740 5740 5739 5737 5737 5735 5734 5733 5732 5731 5731 5731 5730 5734 5733 5731 5732
5768 5754 5761 5767 5771 5769 5764 5764 5768 5758 5749 5753 5752 5754 5757 5756 5754 5751 5750 5748 5748 5749 5750 5752 5751 5750 5748 5745 5744 5742 5740 5739 5738 5738 5737 5735 5734 5732 5731 5730 5728 5728 5728 5727 5726 5727 5727 5728 5728
5766 5765 5768 5767 5771 5767 5763 5762 5761 5758 5755 5764 5762 5759 5756 5753 5751 5749 5748 5748 5748 5747 5748 5749 5749 5748 5746 5744 5742 5740 5738 5736 5735 5735 5735 5733 5731 5730 5729 5727 5726 5725 5725 5725 5724 5724 5724 5724 5725
5764 5763 5768 5769 5769 5767 5764 5759 5757 5757 5764 5766 5763 5758 5753 5752 5751 5751 5751 5750 5748 5746 5745 5746 5747 5745 5743 5741 5740 5738 5736 5734 5733 5732 5732 5731 5728 5727 5726 5725 5724 5723 5722 5722 5721 5720 5720 5720 5720
5766 5766 5765 5766 5765 5764 5758 5756 5755 5755 5763 5760 5757 5753 5752 5750 5749 5748 5747 5745 5745 5744 5743 5743 5744 5742 5741 5738 5737 5735 5734 5732 5731 5729 5729 5728 5726 5725 5723 5721 5720 5719 5718 5718 5717 5716 5714 5714 5714
5771 5760 5757 5761 5762 5762 5757 5743 5749 5758 5761 5754 5752 5750 5748 5748 5748 5746 5746 5744 5744 5744 5743 5741 5741 5740 5738 5736 5735 5733 5731 5730 5728 5726 5726 5725 5724 5722 5720 5718 5716 5715 5714 5714 5713 5711 5710 5709 5708
5762 5751 5740 5753 5761 5761 5747 5728 5749 5760 5755 5748 5747 5746 5744 5745 5746 5746 5746 5745 5744 5743 5741 5739 5739 5736 5735 5733 5732 5730 5728 5726 5724 5723 5722 5722 5720 5719 5716 5714 5712 5711 5710 5709 5707 5706 5704 5703 5702
5748 5738 5738 5746 5759 5758 5746 5734 5748 5757 5752 5746 5745 5743 5742 5741 5743 5744 5744 5744 5743 5741 5739 5737 5736 5733 5732 5730 5729 5727 5725 5722 5720 5719 5718 5717 5716 5715 5713 5711 5709 5708 5706 5704 5704 5701 5699 5697 5696
5737 5742 5743 5742 5753 5752 5741 5738 5747 5754 5751 5745 5744 5742 5740 5738 5739 5742 5742 5742 5741 5739 5737 5734 5733 5731 5729 5727 5725 5722 5720 5718 5717 5716 5715 5712 5712 5711 5709 5707 5706 5704 5701 5699 5698 5697 5696 5694 5694
5752 5746 5741 5746 5756 5747 5739 5738 5744 5750 5748 5744 5743 5741 5739 5738 5740 5740 5739 5738 5736 5734 5732 5730 5728 5727 5725 5721 5718 5715 5713 5713 5712 5712 5712 5710 5709 5707 5706 5704 5702 5700 5697 5696 5695 5693 5691 5690 5691
5750 5742 5741 5746 5754 5746 5738 5738 5746 5749 5746 5745 5743 5741 5739 5737 5736 5735 5734 5733 5731 5728 5727 5726 5724 5723 5722 5719 5717 5714 5711 5710 5709 5708 5708 5707 5705 5704 5702 5701 5698 5696 5694 5692 5691 5690 5688 5687 5689
5745 5741 5738 5737 5745 5746 5737 5729 5738 5746 5748 5745 5743 5742 5740 5736 5732 5730 5729 5727 5726 5724 5723 5723 5721 5719 5718 5717 5714 5711 5708 5706 5704 5703 5702 5702 5702 5700 5699 5698 5696 5694 5692 5689 5689 5688 5685 5682 5685
5735 5747 5743 5737 5729 5725 5733 5710 5728 5738 5737 5737 5737 5737 5736 5734 5731 5728 5726 5723 5722 5722 5722 5720 5718 5717 5715 5713 5710 5705 5701 5697 5698 5699 5699 5699 5698 5697 5696 5695 5694 5692 5691 5688 5687 5687 5685 5682 5680
5741 5749 5743 5737 5729 5724 5730 5718 5723 5736 5728 5731 5734 5734 5734 5732 5729 5726 5724 5721 5720 5719 5717 5716 5714 5713 5712 5710 5707 5702 5699 5697 5697 5697 5695 5694 5694 5694 5693 5692 5691 5690 5688 5687 5686 5685 5684 5682 5679
5748 5743 5740 5737 5727 5708 5727 5720 5713 5727 5731 5731 5733 5732 5731 5730 5727 5724 5722 5719 5716 5715 5713 5711 5709 5707 5707 5705 5703 5700 5696 5694 5692 5691 5690 5689 5689 5690 5690 5689 5688 5687 5686 5685 5683 5682 5681 5680 5680
5740 5723 5707 5704 5700 5707 5733 5722 5717 5733 5740 5737 5732 5730 5729 5727 5723 5719 5715 5712 5710 5709 5707 5706 5704 5702 5702 5701 5699 5697 5694 5692 5690 5688 5687 5685 5685 5685 5685 5685 5684 5683 5683 5682 5681 5680 5679 5679 5678
5731 5724 5701 5690 5697 5710 5726 5714 5721 5737 5740 5739 5734 5730 5727 5723 5720 5716 5712 5709 5706 5705 5703 5702 5700 5698 5697 5696 5695 5694 5692 5690 5688 5687 5685 5684 5683 5682 5683 5682 5681 5680 5680 5679 5678 5677 5676 5676 5676
5725 5723 5729 5712 5710 5706 5712 5717 5721 5732 5730 5728 5726 5723 5719 5717 5715 5712 5709 5706 5704 5702 5700 5699 5696 5694 5693 5692 5691 5690 5688 5686 5684 5684 5683 5681 5681 5680 5679 5678 5677 5677 5676 5675 5674 5672 5672 5673 5672
5732 5727 5718 5704 5689 5688 5701 5706 5702 5711 5713 5717 5716 5714 5714 5713 5710 5708 5705 5703 5701 5699 5697 5696 5694 5691 5689 5688 5687 5686 5684 5682 5681 5679 5678 5677 5677 5676 5675 5674 5674 5673 5672 5670 5669 5668 5668 5668 5668
5720 5716 5713 5706 5702 5686 5680 5687 5714 5712 5712 5711 5711 5711 5709 5706 5704 5702 5700 5699 5697 5695 5693 5691 5689 5687 5685 5684 5682 5680 5679 5678 5676 5674 5673 5673 5672 5671 5671 5670 5669 5668 5667 5666 5665 5663 5663 5663 5663
5722 5714 5708 5690 5690 5695 5683 5684 5718 5714 5714 5712 5709 5707 5705 5702 5699 5697 5695 5692 5690 5688 5687 5685 5684 5682 5680 5679 5678 5676 5674 5672 5670 5669 5668 5667 5666 5666 5666 5665 5664 5663 5662 5661 5660 5659 5659 5658 5658